STARLINK-31776 (59603 NORAD) Tracking and Keplerian Element Data

This shows tracking and keplerian element data for the satellite.

Feedback or suggestion? Click here.




ElementValue
Catalog59603
NameSTARLINK-31776
Epoch Orbit744
Epoch Day160.07085768
Epoch Year2024
RAAN88.0084
Inclination42.9995
Eccentricity0.0001367
Argument of Perigee272.0468
Mean Anonmoly88.0232
Mean Motion15.4074013
Decay Rate0.00039188
L11 59603U 24080C 24160.07085768 .00039188 00000+0 93931-3 0 9997
L22 59603 42.9995 88.0084 0001367 272.0468 88.0232 15.40740130 7440



Live tracking and technical data element details for STARLINK-31776 (NORAD 59603). STARLINK-31776 can be tracked NOW for your location showing map with azimuth and elevation plus other details from your city location.







IsCatalogInMostPopularTable: catalog: 59603, numindb: 10
Update: records affected: 1



GetName: 59603 STARLINK-31776

Hit Count: updated at: Fri, 14 Jun 2024 19:12:15 GMT